Regional Weather Roundup
Issued by NWS

Home | Current Version | Previous Version | Text Only | Print | Product List | Glossary On
Versions: 1 2 3 4 5 6 7 8 9 10 11 12 13 14 15 16 17 18 19 20 21 22 23 24 25 26 27 28 29 30 31 32 33 34 35 36 37 38 39 40 41 42 43 44 45 46 47 48 49 50
000
ASUS46 KPQR 241610
RWROR

OREGON REGIONAL WEATHER ROUNDUP
NATIONAL WEATHER SERVICE PORTLAND OR
900 AM PDT FRI MAR 24 2017

NOTE: "FAIR" INDICATES FEW OR NO CLOUDS BELOW 12,000 FEET WITH
NO SIGNIFICANT WEATHER AND/OR OBSTRUCTIONS TO VISIBILITY.

ORZ001>013-241700-
NORTHWEST OREGON


CITY           SKY/WX    TMP DP  RH WIND       PRES   REMARKS
ASTORIA        CLOUDY    50  44  80 S9        29.78S
NEWPORT        CLOUDY    46  45  93 S9        29.88R
PORTLAND       LGT RAIN  47  45  93 SE10      29.86R
VANCOUVER WA   LGT RAIN  47  47 100 SE8       29.85R
SCAPPOOSE      CLOUDY    48  45  89 VRB3      29.84R
HILLSBORO      CLOUDY    47  44  90 S9        29.84R
AURORA         LGT RAIN  47  44  90 S9        29.87R
MCMINNVILLE    CLOUDY    47  43  86 S13       29.86R
SALEM          LGT RAIN  47  43  86 S8        29.86R
CORVALLIS        N/A     46  43  87 SE3       29.88R
EUGENE         LGT RAIN  47  45  93 S8        29.89R
$$

ORZ021-028-241700-
SOUTHWEST OREGON


CITY           SKY/WX    TMP DP  RH WIND       PRES   REMARKS
NORTH BEND     CLOUDY    46  45  93 S7        29.92R
BROOKINGS      LGT RAIN  45  45 100 E5        29.95S
ROSEBURG       LGT RAIN  46  42  86 CALM      29.92R FOG
SEXTON SUMMIT  SNOW      33  33 100 S13G21    29.86R VSB<1/4 WCI  24
MEDFORD        LGT RAIN  45  40  82 S9        29.92R
$$

ORZ014>016-041-241700-
COLUMBIA GORGE


CITY           SKY/WX    TMP DP  RH WIND       PRES   REMARKS
TROUTDALE      LGT RAIN  47  46  97 NE3       29.87R
THE DALLES     LGT RAIN  45  43  93 NW9       29.85S
$$

ORZ029>031-041-044-049-050-061>064-502-503-505>511-241700-
EASTERN OREGON


CITY           SKY/WX    TMP DP  RH WIND       PRES   REMARKS
REDMOND        CLOUDY    45  31  58 S8        29.82S
BEND           CLOUDY    43  34  70 S18       29.82R
PRINEVILLE     CLOUDY    45  34  65 S13       29.82S
KLAMATH FALLS  CLOUDY    39  28  64 S22G33    29.91F WCI  29
LAKEVIEW       CLOUDY    41  27  56 S22G30    29.95F
HERMISTON      LGT RAIN  48  47  96 E9        29.84F
PENDLETON      RAIN      46  44  93 SE7       29.85F FOG
JOHN DAY       DRIZZLE   42  36  79 S21G31    29.89F
MEACHAM        LGT RAIN  37  34  89 CALM      29.86S
LA GRANDE      CLOUDY    43  36  75 SE15      29.90S
BAKER CITY     LGT RAIN  40  34  79 E13       29.94S WCI  32
BURNS          CLOUDY    40  34  79 N3        29.95F
ROME             N/A     49  28  44 VRB5      29.96F
ONTARIO        CLOUDY    46  34  62 S12       30.02R
$$



USA.gov is the U.S. government's official web portal to all federal, state and local government web resources and services.